When you browse on this site, cookies collect data to enhance your experience and personalize the content and advertising you see.
Visit our Privacy Policy to learn more. By continuing to use the site, you agree to this use of cookies and data.
  • In Slovakia
  • List of Countries
  • For 7 days
  • Water Temperature
  • Satellite Maps
  • Weather Map
  • Weather Widgets
  • user-avatar
    Login

    Hourly Weather Varna

    Today, 27 June, Thursday

    Time Temperature Precipitation Wind Pressure Humidity
    00:00 +21°C° 0 mm 2 mps 749 mmHg 89%
    01:00 +20°C° 0 mm 3 mps 749 mmHg 89%
    02:00 +20°C° 0 mm 3 mps 749 mmHg 89%
    03:00 +20°C° 0 mm 3 mps 749 mmHg 88%
    04:00 +20°C° 0 mm 3 mps 749 mmHg 87%
    05:00 +20°C° 0 mm 2 mps 748 mmHg 86%
    06:00 +23°C° 0 mm 2 mps 748 mmHg 79%
    07:00 +24°C° 0 mm 2 mps 748 mmHg 72%
    08:00 +26°C° 0 mm 2 mps 748 mmHg 65%
    09:00 +28°C° 0 mm 2 mps 748 mmHg 58%
    10:00 +29°C° 0 mm 2 mps 748 mmHg 51%
    11:00 +31°C° 0 mm 2 mps 747 mmHg 45%
    12:00 +31°C° 0 mm 2 mps 747 mmHg 43%
    13:00 +31°C° 0 mm 2 mps 746 mmHg 41%
    14:00 +33°C° 0 mm 3 mps 746 mmHg 39%
    15:00 +33°C° 0 mm 3 mps 745 mmHg 40%
    16:00 +31°C° 0 mm 3 mps 745 mmHg 42%
    17:00 +31°C° 0 mm 3 mps 744 mmHg 44%
    18:00 +29°C° 0 mm 3 mps 744 mmHg 51%
    19:00 +27°C° 0 mm 2 mps 743 mmHg 59%
    20:00 +25°C° 0 mm 2 mps 743 mmHg 66%
    21:00 +24°C° 0 mm 2 mps 743 mmHg 67%
    22:00 +23°C° 0 mm 2 mps 743 mmHg 69%
    23:00 +23°C° 0 mm 2 mps 743 mmHg 70%

    Tomorrow, 28 June, Friday

    Time Temperature Precipitation Wind Pressure Humidity
    00:00 +23°C° 0 mm 2 mps 743 mmHg 72%
    01:00 +22°C° 0 mm 3 mps 742 mmHg 74%
    02:00 +22°C° 0 mm 3 mps 742 mmHg 76%
    03:00 +21°C° 0.1 mm 3 mps 742 mmHg 80%
    04:00 +21°C° 0.1 mm 3 mps 742 mmHg 84%
    05:00 +20°C° 0.1 mm 4 mps 742 mmHg 88%
    06:00 +21°C° 0.3 mm 4 mps 742 mmHg 84%
    07:00 +22°C° 0.3 mm 5 mps 742 mmHg 79%
    08:00 +25°C° 0.3 mm 5 mps 742 mmHg 75%
    09:00 +25°C° 0.2 mm 5 mps 743 mmHg 68%
    10:00 +26°C° 0.2 mm 5 mps 743 mmHg 60%
    11:00 +27°C° 0.2 mm 5 mps 743 mmHg 53%
    12:00 +26°C° 0.1 mm 5 mps 743 mmHg 55%
    13:00 +25°C° 0.1 mm 5 mps 743 mmHg 57%
    14:00 +25°C° 0.1 mm 5 mps 743 mmHg 58%
    15:00 +25°C° 0 mm 5 mps 743 mmHg 58%
    16:00 +25°C° 0 mm 4 mps 743 mmHg 58%
    17:00 +25°C° 0 mm 3 mps 743 mmHg 58%
    18:00 +24°C° 0 mm 3 mps 744 mmHg 60%
    19:00 +22°C° 0 mm 4 mps 744 mmHg 63%
    20:00 +21°C° 0 mm 4 mps 744 mmHg 65%
    21:00 +21°C° 0 mm 5 mps 745 mmHg 60%
    22:00 +21°C° 0 mm 6 mps 745 mmHg 55%
    23:00 +20°C° 0 mm 7 mps 746 mmHg 50%

    Day after tomorrow, 29 June, Saturday

    Time Temperature Precipitation Wind Pressure Humidity
    00:00 +20°C° 0 mm 7 mps 746 mmHg 51%
    01:00 +19°C° 0 mm 6 mps 746 mmHg 53%
    02:00 +17°C° 0 mm 6 mps 746 mmHg 55%
    03:00 +17°C° 0 mm 6 mps 746 mmHg 58%
    04:00 +16°C° 0 mm 5 mps 746 mmHg 62%
    05:00 +16°C° 0 mm 5 mps 746 mmHg 65%
    06:00 +17°C° 0 mm 5 mps 746 mmHg 60%
    07:00 +19°C° 0 mm 6 mps 747 mmHg 56%
    08:00 +20°C° 0 mm 6 mps 747 mmHg 52%
    09:00 +21°C° 0 mm 6 mps 747 mmHg 48%
    10:00 +22°C° 0 mm 6 mps 747 mmHg 44%
    11:00 +24°C° 0 mm 6 mps 747 mmHg 41%
    12:00 +24°C° 0 mm 6 mps 747 mmHg 41%
    13:00 +26°C° 0 mm 6 mps 747 mmHg 40%
    14:00 +26°C° 0 mm 6 mps 747 mmHg 40%
    15:00 +26°C° 0 mm 6 mps 747 mmHg 41%
    16:00 +25°C° 0 mm 5 mps 747 mmHg 43%
    17:00 +25°C° 0 mm 5 mps 747 mmHg 44%
    18:00 +22°C° 0 mm 5 mps 747 mmHg 51%
    19:00 +21°C° 0 mm 4 mps 747 mmHg 58%
    20:00 +19°C° 0 mm 3 mps 747 mmHg 64%
    21:00 +18°C° 0 mm 4 mps 747 mmHg 67%
    22:00 +18°C° 0 mm 4 mps 748 mmHg 70%
    23:00 +16°C° 0 mm 5 mps 748 mmHg 72%

    30 June, Sunday

    Time Temperature Precipitation Wind Pressure Humidity
    00:00 +16°C° 0 mm 5 mps 748 mmHg 71%
    01:00 +17°C° 0 mm 4 mps 748 mmHg 70%
    02:00 +17°C° 0 mm 4 mps 748 mmHg 69%
    03:00 +15°C° 0 mm 4 mps 748 mmHg 73%
    04:00 +14°C° 0 mm 4 mps 748 mmHg 77%
    05:00 +13°C° 0 mm 5 mps 748 mmHg 81%
    06:00 +15°C° 0 mm 5 mps 748 mmHg 72%
    07:00 +17°C° 0 mm 5 mps 748 mmHg 63%
    08:00 +21°C° 0 mm 6 mps 749 mmHg 54%
    09:00 +22°C° 0 mm 6 mps 749 mmHg 50%
    10:00 +24°C° 0 mm 6 mps 749 mmHg 46%
    11:00 +26°C° 0 mm 6 mps 749 mmHg 43%
    12:00 +26°C° 0 mm 6 mps 749 mmHg 43%
    13:00 +27°C° 0 mm 6 mps 749 mmHg 43%
    14:00 +27°C° 0 mm 6 mps 749 mmHg 44%
    15:00 +27°C° 0 mm 6 mps 748 mmHg 44%
    16:00 +27°C° 0 mm 5 mps 748 mmHg 44%
    17:00 +27°C° 0 mm 5 mps 748 mmHg 44%
    18:00 +25°C° 0 mm 5 mps 748 mmHg 49%
    19:00 +23°C° 0 mm 4 mps 748 mmHg 54%
    20:00 +22°C° 0 mm 4 mps 748 mmHg 59%
    21:00 +22°C° 0 mm 4 mps 748 mmHg 59%
    22:00 +21°C° 0 mm 4 mps 749 mmHg 58%
    23:00 +21°C° 0 mm 4 mps 749 mmHg 58%

    1 July, Monday

    Time Temperature Precipitation Wind Pressure Humidity
    00:00 +21°C° 0 mm 4 mps 749 mmHg 59%
    01:00 +21°C° 0 mm 4 mps 749 mmHg 60%
    02:00 +21°C° 0 mm 3 mps 749 mmHg 61%
    03:00 +20°C° 0 mm 3 mps 749 mmHg 65%
    04:00 +19°C° 0 mm 3 mps 749 mmHg 70%
    05:00 +18°C° 0 mm 3 mps 749 mmHg 74%
    06:00 +20°C° 0 mm 4 mps 749 mmHg 68%
    07:00 +22°C° 0 mm 4 mps 749 mmHg 61%
    08:00 +25°C° 0 mm 5 mps 749 mmHg 55%
    09:00 +26°C° 0 mm 4 mps 750 mmHg 50%
    10:00 +27°C° 0 mm 4 mps 750 mmHg 45%
    11:00 +29°C° 0 mm 4 mps 750 mmHg 40%
    12:00 +29°C° 0 mm 4 mps 750 mmHg 41%
    13:00 +29°C° 0 mm 4 mps 749 mmHg 42%
    14:00 +29°C° 0 mm 3 mps 749 mmHg 43%
    15:00 +29°C° 0 mm 4 mps 749 mmHg 46%
    16:00 +28°C° 0 mm 4 mps 749 mmHg 50%
    17:00 +27°C° 0 mm 4 mps 749 mmHg 53%
    18:00 +25°C° 0 mm 3 mps 748 mmHg 59%
    19:00 +24°C° 0 mm 3 mps 748 mmHg 65%
    20:00 +21°C° 0 mm 3 mps 748 mmHg 72%
    21:00 +20°C° 0 mm 3 mps 748 mmHg 74%
    22:00 +20°C° 0 mm 3 mps 748 mmHg 77%
    23:00 +19°C° 0 mm 3 mps 748 mmHg 80%

    2 July, Tuesday

    Time Temperature Precipitation Wind Pressure Humidity
    00:00 +19°C° 0 mm 2 mps 748 mmHg 81%
    01:00 +19°C° 0 mm 2 mps 747 mmHg 81%
    02:00 +18°C° 0 mm 2 mps 747 mmHg 82%
    03:00 +18°C° 0 mm 2 mps 747 mmHg 82%
    04:00 +18°C° 0 mm 2 mps 747 mmHg 82%
    05:00 +18°C° 0 mm 2 mps 746 mmHg 82%
    06:00 +21°C° 0 mm 2 mps 746 mmHg 73%
    07:00 +24°C° 0 mm 2 mps 746 mmHg 64%
    08:00 +27°C° 0 mm 2 mps 746 mmHg 54%
    09:00 +29°C° 0 mm 3 mps 746 mmHg 49%
    10:00 +31°C° 0 mm 3 mps 746 mmHg 43%
    11:00 +33°C° 0 mm 3 mps 746 mmHg 38%
    12:00 +34°C° 0 mm 3 mps 746 mmHg 37%
    13:00 +35°C° 0 mm 4 mps 746 mmHg 36%
    14:00 +35°C° 0 mm 4 mps 745 mmHg 35%
    15:00 +35°C° 0 mm 4 mps 745 mmHg 37%
    16:00 +34°C° 0 mm 4 mps 745 mmHg 39%
    17:00 +34°C° 0 mm 4 mps 744 mmHg 41%
    18:00 +30°C° 0 mm 3 mps 744 mmHg 48%
    19:00 +28°C° 0 mm 3 mps 744 mmHg 54%
    20:00 +26°C° 0 mm 2 mps 744 mmHg 60%
    21:00 +25°C° 0 mm 2 mps 744 mmHg 61%
    22:00 +25°C° 0 mm 2 mps 744 mmHg 62%
    23:00 +24°C° 0 mm 2 mps 744 mmHg 63%
    Show more